Location: Votelez
(50.0000°N, 15.0000°E)
Time: 11:14:31
(UTC+01:00)

ISS - Pass Details

Date: 17 February 2026
Orbit: 416 x 426 km, 51.6° (Epoch: 10 March)

Event Time Altitude Azimuth Distance (km) Brightness Sun altitude
Exits shadow 04:06:02 11° 112° (ESE) 1,444 -0.5 -29.5°
Drops below altitude 10° 04:06:18 10° 108° (ESE) 1,492 -0.3 -29.5°
Sets 04:09:15 0° 79° (E) 2,359 1.3 -29.0°
